| time (UTC) | temp F | wind direction | speed MPH | gust MPH | rain 1hr in | rain 24hr in | rain mn in | humidity % | barometer mb |
| 20260831053053 | 66 | 96 | 0.0 | 1.0 | 0.00 | 0.00 | 0.00 | 85 | 1019.2 |
| 20260831051543 | 66 | 96 | 0.0 | 2.0 | 0.00 | 0.00 | 0.00 | 85 | 1019.1 |
| 20260831050043 | 66 | 96 | 2.0 | 3.0 | 0.00 | 0.00 | 0.00 | 85 | 1019.1 |
| 20260831044538 | 66 | 96 | 0.0 | 2.0 | 0.00 | 0.00 | 0.00 | 84 | 1019.1 |
| 20260831043039 | 66 | 96 | 0.0 | 1.0 | 0.00 | 0.00 | 0.00 | 84 | 1019.2 |
| 20260831041532 | 66 | 96 | 0.0 | 0.0 | 0.00 | 0.00 | 0.00 | 84 | 1019.2 |
| 20260831040030 | 67 | 96 | 0.0 | 2.0 | 0.00 | 0.00 | 0.00 | 82 | 1018.9 |
| 20260831034529 | 67 | 96 | 0.0 | 2.0 | 0.00 | 0.00 | 0.00 | 82 | 1019.2 |
| 20260831033055 | 67 | 96 | 0.0 | 3.0 | 0.00 | 0.00 | 0.00 | 81 | 1019.1 |
| 20260831031529 | 68 | 96 | 0.0 | 0.0 | 0.00 | 0.00 | 0.00 | 81 | 1019.2 |
| 20260831030027 | 68 | 96 | 0.0 | 2.0 | 0.00 | 0.00 | 0.00 | 81 | 1019.1 |
| 20260831024530 | 67 | 96 | 0.0 | 4.0 | 0.00 | 0.00 | 0.00 | 82 | 1019.1 |
| 20260831023027 | 67 | 96 | 2.0 | 3.0 | 0.00 | 0.00 | 0.00 | 81 | 1019.3 |
| 20260831021526 | 68 | 96 | 1.0 | 4.0 | 0.00 | 0.00 | 0.00 | 81 | 1019.2 |
| 20260831020025 | 68 | 96 | 1.0 | 3.0 | 0.00 | 0.00 | 0.00 | 80 | 1019.3 |
| 20260831014525 | 68 | 91 | 1.0 | 3.0 | 0.00 | 0.00 | 0.00 | 79 | 1019.2 |
| 20260831013025 | 68 | 91 | 1.0 | 2.0 | 0.00 | 0.00 | 0.00 | 79 | 1019.0 |
| 20260831011524 | 68 | 91 | 1.0 | 5.0 | 0.00 | 0.00 | 0.00 | 79 | 1019.1 |
| 20260831010023 | 68 | 27 | 1.0 | 5.0 | 0.00 | 0.00 | 0.00 | 78 | 1019.0 |
| 20260831004527 | 68 | 334 | 3.0 | 9.0 | 0.00 | 0.00 | 0.00 | 79 | 1019.0 |
| 20260831003032 | 69 | 17 | 0.0 | 1.0 | 0.00 | 0.00 | 0.00 | 81 | 1018.6 |
| 20260831001522 | 69 | 17 | 1.0 | 3.0 | 0.00 | 0.00 | 0.00 | 79 | 1018.3 |
| 20260831000029 | 69 | 17 | 0.0 | 2.0 | 0.00 | 0.00 | 0.00 | 80 | 1018.2 |
| 20260830234534 | 69 | 17 | 1.0 | 4.0 | 0.00 | 0.00 | 0.00 | 79 | 1017.9 |
| 20260830233022 | 70 | 17 | 0.0 | 2.0 | 0.00 | 0.00 | 0.00 | 78 | 1018.0 |
| 20260830231521 | 70 | 17 | 0.0 | 1.0 | 0.00 | 0.00 | 0.00 | 77 | 1017.8 |
| 20260830230020 | 70 | 17 | 0.0 | 0.0 | 0.00 | 0.00 | 0.00 | 76 | 1017.9 |
| 20260830224519 | 71 | 17 | 0.0 | 2.0 | 0.00 | 0.00 | 0.00 | 76 | 1017.8 |
| 20260830223020 | 71 | 17 | 1.0 | 2.0 | 0.00 | 0.00 | 0.00 | 75 | 1017.8 |
| 20260830221534 | 71 | 17 | 0.0 | 2.0 | 0.00 | 0.00 | 0.00 | 75 | 1017.9 |
| 20260830220019 | 71 | 17 | 1.0 | 4.0 | 0.00 | 0.00 | 0.00 | 75 | 1017.7 |
| 20260830214518 | 71 | 17 | 1.0 | 3.0 | 0.00 | 0.00 | 0.00 | 75 | 1017.6 |
| 20260830213017 | 71 | 17 | 1.0 | 3.0 | 0.00 | 0.00 | 0.00 | 74 | 1017.8 |
| 20260830211517 | 72 | 17 | 2.0 | 3.0 | 0.00 | 0.00 | 0.00 | 74 | 1017.8 |
| 20260830210016 | 72 | 18 | 2.0 | 5.0 | 0.00 | 0.00 | 0.00 | 74 | 1018.0 |
| 20260830204521 | 72 | 23 | 1.0 | 4.0 | 0.00 | 0.00 | 0.00 | 73 | 1017.9 |
| 20260830203016 | 73 | 23 | 0.0 | 3.0 | 0.00 | 0.00 | 0.00 | 72 | 1017.9 |
| 20260830201515 | 73 | 23 | 0.0 | 1.0 | 0.00 | 0.00 | 0.00 | 69 | 1017.7 |
| 20260830200014 | 73 | 24 | 1.0 | 4.0 | 0.00 | 0.00 | 0.00 | 68 | 1017.6 |
| 20260830194514 | 73 | 27 | 0.0 | 9.0 | 0.00 | 0.00 | 0.00 | 68 | 1017.5 |
| 20260830193014 | 74 | 28 | 2.0 | 5.0 | 0.00 | 0.00 | 0.00 | 68 | 1017.6 |
| 20260830191514 | 76 | 19 | 1.0 | 2.0 | 0.00 | 0.00 | 0.00 | 68 | 1017.3 |
| 20260830190014 | 77 | 19 | 0.0 | 3.0 | 0.00 | 0.00 | 0.00 | 66 | 1017.3 |
| 20260830184510 | 78 | 19 | 1.0 | 2.0 | 0.00 | 0.00 | 0.00 | 63 | 1017.4 |
| 20260830183011 | 78 | 23 | 0.0 | 3.0 | 0.00 | 0.00 | 0.00 | 64 | 1017.4 |
| 20260830181509 | 79 | 23 | 0.0 | 3.0 | 0.00 | 0.00 | 0.00 | 59 | 1017.5 |
| 20260830180007 | 78 | 23 | 0.0 | 3.0 | 0.00 | 0.00 | 0.00 | 61 | 1017.6 |
| 20260830174507 | 78 | 23 | 1.0 | 4.0 | 0.00 | 0.00 | 0.00 | 62 | 1017.5 |
| 20260830173009 | 80 | 27 | 1.0 | 3.0 | 0.00 | 0.00 | 0.00 | 57 | 1017.8 |
| 20260830171503 | 79 | 9 | 2.0 | 5.0 | 0.00 | 0.00 | 0.00 | 58 | 1017.9 |
| 20260830170003 | 77 | 5 | 1.0 | 4.0 | 0.00 | 0.00 | 0.00 | 63 | 1018.0 |
| 20260830164600 | 78 | 346 | 0.0 | 3.0 | 0.00 | 0.00 | 0.00 | 60 | 1018.2 |
| 20260830163100 | 78 | 243 | 3.0 | 9.0 | 0.00 | 0.00 | 0.00 | 60 | 1018.3 |
| 20260830161605 | 76 | 201 | 4.0 | 7.0 | 0.00 | 0.00 | 0.00 | 62 | 1018.5 |
| 20260830160104 | 77 | 217 | 5.0 | 9.0 | 0.00 | 0.00 | 0.00 | 63 | 1018.5 |
| 20260830154554 | 77 | 200 | 4.0 | 9.0 | 0.00 | 0.00 | 0.00 | 63 | 1018.8 |
| 20260830153047 | 74 | 223 | 1.0 | 5.0 | 0.00 | 0.00 | 0.00 | 68 | 1018.8 |
| 20260830151554 | 73 | 218 | 0.0 | 0.0 | 0.00 | 0.00 | 0.00 | 70 | 1019.0 |
| 20260830150038 | 70 | 195 | 0.0 | 0.0 | 0.00 | 0.00 | 0.00 | 74 | 1019.2 |
| 20260830144547 | 67 | 132 | 0.0 | 0.0 | 0.00 | 0.00 | 0.00 | 78 | 1019.2 |
| 20260830143032 | 66 | 132 | 0.0 | 0.0 | 0.00 | 0.00 | 0.00 | 79 | 1019.1 |
| 20260830141529 | 66 | 132 | 0.0 | 0.0 | 0.00 | 0.00 | 0.00 | 80 | 1018.9 |
| 20260830140029 | 65 | 132 | 0.0 | 0.0 | 0.00 | 0.00 | 0.00 | 81 | 1019.0 |
| 20260830134522 | 64 | 132 | 0.0 | 0.0 | 0.00 | 0.00 | 0.00 | 85 | 1019.0 |
| 20260830133029 | 63 | 132 | 0.0 | 0.0 | 0.00 | 0.00 | 0.00 | 85 | 1019.5 |
| 20260830131515 | 62 | 132 | 0.0 | 0.0 | 0.00 | 0.00 | 0.00 | 87 | 1019.6 |
| 20260830130014 | 61 | 132 | 0.0 | 0.0 | 0.00 | 0.00 | 0.00 | 87 | 1019.7 |
| 20260830124522 | 61 | 132 | 0.0 | 0.0 | 0.00 | 0.00 | 0.00 | 87 | 1019.7 |
| 20260830123011 | 61 | 132 | 0.0 | 0.0 | 0.00 | 0.00 | 0.00 | 89 | 1019.8 |
| 20260830121507 | 60 | 196 | 0.0 | 0.0 | 0.00 | 0.00 | 0.00 | 89 | 1019.6 |
| 20260830120004 | 59 | 202 | 0.0 | 0.0 | 0.00 | 0.00 | 0.00 | 90 | 1019.8 |
| 20260830114503 | 59 | 202 | 0.0 | 0.0 | 0.00 | 0.00 | 0.00 | 91 | 1020.0 |
| 20260830113003 | 58 | 202 | 0.0 | 0.0 | 0.00 | 0.00 | 0.00 | 91 | 1020.3 |
| 20260830111501 | 58 | 202 | 0.0 | 0.0 | 0.00 | 0.00 | 0.00 | 91 | 1020.4 |
| 20260830110001 | 58 | 202 | 0.0 | 0.0 | 0.00 | 0.00 | 0.00 | 90 | 1020.3 |
| 20260830104600 | 57 | 202 | 0.0 | 0.0 | 0.00 | 0.00 | 0.00 | 90 | 1020.3 |
| 20260830103059 | 57 | 202 | 0.0 | 0.0 | 0.00 | 0.00 | 0.00 | 90 | 1020.2 |
| 20260830101558 | 58 | 202 | 0.0 | 0.0 | 0.00 | 0.00 | 0.00 | 90 | 1020.1 |
| 20260830100056 | 58 | 202 | 0.0 | 0.0 | 0.00 | 0.00 | 0.00 | 90 | 1020.3 |
| 20260830094554 | 58 | 202 | 0.0 | 0.0 | 0.00 | 0.00 | 0.00 | 90 | 1020.5 |
| 20260830093053 | 58 | 202 | 0.0 | 0.0 | 0.00 | 0.00 | 0.00 | 90 | 1020.6 |
| 20260830091551 | 59 | 202 | 0.0 | 0.0 | 0.00 | 0.00 | 0.00 | 90 | 1020.7 |
| 20260830090051 | 59 | 202 | 0.0 | 0.0 | 0.00 | 0.00 | 0.00 | 90 | 1020.7 |
| 20260830084550 | 59 | 202 | 0.0 | 0.0 | 0.00 | 0.00 | 0.00 | 89 | 1020.6 |
| 20260830083052 | 59 | 202 | 0.0 | 0.0 | 0.00 | 0.00 | 0.00 | 89 | 1020.8 |
| 20260830081547 | 59 | 202 | 0.0 | 0.0 | 0.00 | 0.00 | 0.00 | 89 | 1020.9 |
| 20260830080048 | 59 | 202 | 0.0 | 0.0 | 0.00 | 0.00 | 0.00 | 89 | 1021.1 |
| 20260830074546 | 59 | 202 | 0.0 | 0.0 | 0.00 | 0.00 | 0.00 | 89 | 1021.0 |
| 20260830073049 | 59 | 202 | 0.0 | 0.0 | 0.00 | 0.00 | 0.00 | 89 | 1021.1 |
| 20260830071545 | 59 | 202 | 0.0 | 0.0 | 0.00 | 0.00 | 0.00 | 89 | 1021.1 |
| 20260830070144 | 59 | 202 | 0.0 | 0.0 | 0.00 | 0.00 | 0.00 | 89 | 1021.1 |
| 20260830064603 | 59 | 202 | 0.0 | 0.0 | 0.00 | 0.00 | 0.00 | 89 | 1021.0 |
| 20260830063044 | 59 | 202 | 0.0 | 0.0 | 0.00 | 0.00 | 0.00 | 89 | 1021.0 |
| 20260830061543 | 59 | 202 | 0.0 | 0.0 | 0.00 | 0.00 | 0.00 | 88 | 1021.0 |
| 20260830060042 | 59 | 202 | 0.0 | 0.0 | 0.00 | 0.00 | 0.00 | 88 | 1021.1 |
| 20260830054542 | 59 | 202 | 0.0 | 0.0 | 0.00 | 0.00 | 0.00 | 88 | 1021.1 |